Regional Weather Roundup
Issued by NWS

Home | Current Version | Previous Version | Graphics & Text | Print | Product List | Glossary Off
Versions: 1 2 3 4 5 6 7 8 9 10 11 12 13 14 15 16 17 18 19 20 21 22 23 24 25 26 27 28 29 30 31 32 33 34 35 36 37 38 39 40 41 42 43 44 45 46 47 48 49 50

000
ASUS43 KTOP 220808
RWRKS

WEATHER ROUNDUP FOR KANSAS
NATIONAL WEATHER SERVICE GOODLAND KS
300 AM CDT MON MAY 22 2017

NOTE:  "FAIR" INDICATES FEW OR NO CLOUDS BELOW 12,000 FEET WITH NO
SIGNIFICANT WEATHER AND/OR OBSTRUCTIONS TO VISIBILITY.

KSZ001>006-013>018-027>032-041>047-220900-
NORTHWEST KANSAS

CITY           SKY/WX    TMP DP  RH WIND       PRES   REMARKS
GOODLAND       LGT RAIN  51  50  96 N10       30.16F
HAYS           PTCLDY    52  48  86 W7        30.11S
HILL CITY      LGT RAIN  58  53  84 W9        30.13F
RUSSELL        CLEAR     54  49  83 SW7       30.09S
$$

KSZ061>065-074>080-084>089-220900-
SOUTHWEST KANSAS

CITY           SKY/WX    TMP DP  RH WIND       PRES   REMARKS
DODGE CITY     CLOUDY    52  50  93 S7        30.11F
ELKHART          N/A     55  42  61 SW13        N/A
GARDEN CITY    CLOUDY    51  48  89 S7        30.11F
LIBERAL        CLOUDY    55  52  89 S7        30.13R
PRATT          CLOUDY    54  49  83 S8        30.11S
$$

KSZ066>073-081>083-090>101-220900-
SOUTHEAST KANSAS

CITY           SKY/WX    TMP DP  RH WIND       PRES   REMARKS
CHANUTE        CLEAR     56  53  90 S7        30.13S
COFFEYVILLE    CLEAR     55  55 100 CALM      30.13S
HUTCHINSON     PTCLDY    56  51  84 CALM      30.10F
MEDICINE LODGE   N/A     60  51  72 S8        30.10F
NEWTON         PTCLDY    57  51  80 S8        30.11F
PARSONS        CLEAR     54  52  93 CALM      30.14S
WICHITA INTL   MOCLDY    56  52  86 S7        30.11S
WICHITA JABRA  CLOUDY    57  52  83 S7        30.11S
WICHITA MCCONL CLOUDY    58  50  74 S8        30.11F
WINFIELD       CLOUDY    56  52  86 S7        30.13F
$$

KSZ007>012-019>026-033>040-048>060-102>105-220900-
NORTHEAST KANSAS

CITY           SKY/WX    TMP DP  RH WIND       PRES   REMARKS
CONCORDIA      CLOUDY    58  52  80 SW7       30.07R
EMPORIA        PTCLDY    54  51  90 CALM      30.10F
LAWRENCE       CLEAR     50  49  96 E3        30.11F
MANHATTAN      PTCLDY    54  52  93 SW3       30.07F
MARYSVILLE     CLEAR     52  46  82 S5        30.07F
OLATHE IND     CLEAR     51  47  86 S5        30.11F
OLATHE EXE     CLEAR     51  48  89 S5        30.11F
SALINA         PTCLDY    58  52  80 NW3       30.10S
TOPEKA BILLARD CLEAR     53  53 100 CALM      30.09F
TOPEKA FORBES  CLEAR     51  48  89 S5        30.09F
$$




USA.gov is the U.S. government's official web portal to all federal, state and local government web resources and services.